| time (UTC) | temp F | wind direction | speed MPH | gust MPH | rain 1hr in | rain 24hr in | rain mn in | humidity % | barometer mb |
| 20260904104553 | 72 | 230 | 0.0 | 0.0 | 0.00 | 0.36 | 0.36 | 95 | 1012.8 |
| 20260904103053 | 72 | 230 | 0.0 | 1.0 | 0.00 | 0.36 | 0.36 | 95 | 1012.6 |
| 20260904101554 | 72 | 230 | 0.0 | 0.0 | 0.00 | 0.36 | 0.36 | 95 | 1012.1 |
| 20260904094551 | 72 | 230 | 0.0 | 0.0 | 0.01 | 0.36 | 0.36 | 95 | 1012.1 |
| 20260904093055 | 72 | 231 | 0.0 | 0.0 | 0.01 | 0.36 | 0.36 | 95 | 1012.3 |
| 20260904091550 | 72 | 178 | 0.0 | 1.0 | 0.01 | 0.36 | 0.36 | 95 | 1012.1 |
| 20260904090052 | 72 | 175 | 0.0 | 0.0 | 0.00 | 0.35 | 0.35 | 95 | 1012.5 |
| 20260904084549 | 72 | 175 | 0.0 | 0.0 | 0.00 | 0.35 | 0.35 | 95 | 1012.5 |
| 20260904083049 | 72 | 175 | 0.0 | 0.0 | 0.02 | 0.35 | 0.35 | 95 | 1012.3 |
| 20260904081549 | 72 | 175 | 0.0 | 0.0 | 0.04 | 0.35 | 0.35 | 95 | 1012.1 |
| 20260904080052 | 72 | 175 | 0.0 | 0.0 | 0.06 | 0.35 | 0.35 | 94 | 1012.3 |
| 20260904074545 | 73 | 175 | 0.0 | 0.0 | 0.07 | 0.35 | 0.35 | 94 | 1012.9 |
| 20260904073050 | 73 | 175 | 0.0 | 0.0 | 0.09 | 0.33 | 0.33 | 95 | 1013.4 |
| 20260904071543 | 73 | 175 | 0.0 | 1.0 | 0.08 | 0.31 | 0.31 | 95 | 1013.2 |
| 20260904070043 | 73 | 176 | 0.0 | 1.0 | 0.08 | 0.28 | 0.28 | 94 | 1013.0 |
| 20260904064545 | 73 | 176 | 0.0 | 0.0 | 0.09 | 0.28 | 0.28 | 94 | 1013.5 |
| 20260904063041 | 73 | 133 | 0.0 | 0.0 | 0.09 | 0.24 | 0.24 | 94 | 1013.8 |
| 20260904061547 | 74 | 192 | 0.0 | 1.0 | 0.23 | 0.23 | 0.23 | 94 | 1014.5 |
| 20260904060038 | 74 | 282 | 0.0 | 4.0 | 0.21 | 0.21 | 0.21 | 94 | 1014.6 |
| 20260904054538 | 74 | 275 | 0.0 | 3.0 | 0.19 | 0.19 | 0.19 | 92 | 1014.6 |
| 20260904053034 | 76 | 267 | 0.0 | 8.0 | 0.15 | 0.15 | 0.15 | 92 | 1014.2 |
| 20260904051533 | 78 | 259 | 2.0 | 10.0 | 0.00 | 0.00 | 0.00 | 87 | 1013.8 |
| 20260904050025 | 79 | 103 | 0.0 | 0.0 | 0.00 | 0.00 | 0.00 | 95 | 1013.1 |
| 20260904044535 | 79 | 103 | 0.0 | 0.0 | 0.00 | 0.00 | 0.00 | 95 | 1012.4 |
| 20260904043022 | 78 | 103 | 0.0 | 0.0 | 0.00 | 0.00 | 0.00 | 95 | 1012.6 |
| 20260904041532 | 78 | 103 | 0.0 | 0.0 | 0.00 | 0.00 | 0.00 | 94 | 1012.3 |
| 20260904040019 | 78 | 103 | 0.0 | 0.0 | 0.00 | 0.00 | 0.00 | 94 | 1012.5 |
| 20260904034517 | 78 | 103 | 0.0 | 0.0 | 0.00 | 0.00 | 0.00 | 94 | 1012.8 |
| 20260904033017 | 78 | 103 | 0.0 | 0.0 | 0.00 | 0.00 | 0.00 | 94 | 1013.0 |
| 20260904031516 | 78 | 103 | 0.0 | 0.0 | 0.00 | 0.00 | 0.00 | 94 | 1013.1 |
| 20260904030016 | 79 | 103 | 0.0 | 0.0 | 0.00 | 0.00 | 0.00 | 94 | 1013.3 |
| 20260904024515 | 79 | 103 | 0.0 | 0.0 | 0.00 | 0.00 | 0.00 | 94 | 1013.1 |
| 20260904023015 | 79 | 103 | 0.0 | 0.0 | 0.00 | 0.00 | 0.00 | 94 | 1013.0 |
| 20260904021516 | 79 | 103 | 0.0 | 0.0 | 0.00 | 0.00 | 0.00 | 93 | 1013.0 |
| 20260904020014 | 79 | 103 | 0.0 | 0.0 | 0.00 | 0.00 | 0.00 | 93 | 1013.3 |
| 20260904014514 | 79 | 103 | 0.0 | 0.0 | 0.00 | 0.00 | 0.00 | 93 | 1013.6 |
| 20260904013013 | 79 | 103 | 0.0 | 0.0 | 0.00 | 0.00 | 0.00 | 93 | 1013.8 |
| 20260904011512 | 80 | 103 | 0.0 | 0.0 | 0.00 | 0.00 | 0.00 | 93 | 1014.1 |
| 20260904010012 | 80 | 103 | 0.0 | 0.0 | 0.00 | 0.00 | 0.00 | 93 | 1014.3 |
| 20260904004512 | 80 | 103 | 0.0 | 0.0 | 0.00 | 0.00 | 0.00 | 92 | 1014.1 |
| 20260904003012 | 80 | 103 | 0.0 | 0.0 | 0.00 | 0.00 | 0.00 | 92 | 1014.0 |
| 20260904001511 | 81 | 103 | 0.0 | 0.0 | 0.00 | 0.00 | 0.00 | 91 | 1013.6 |
| 20260904000012 | 81 | 103 | 0.0 | 0.0 | 0.00 | 0.00 | 0.00 | 90 | 1013.4 |
| 20260903234512 | 82 | 103 | 0.0 | 0.0 | 0.00 | 0.00 | 0.00 | 89 | 1013.3 |
| 20260903233010 | 83 | 103 | 0.0 | 0.0 | 0.00 | 0.00 | 0.00 | 87 | 1013.2 |
| 20260903231508 | 84 | 103 | 0.0 | 0.0 | 0.00 | 0.00 | 0.00 | 85 | 1013.2 |
| 20260903230008 | 85 | 103 | 0.0 | 0.0 | 0.00 | 0.00 | 0.00 | 84 | 1013.3 |
| 20260903224507 | 85 | 57 | 0.0 | 0.0 | 0.00 | 0.00 | 0.00 | 84 | 1013.2 |
| 20260903223009 | 85 | 176 | 0.0 | 1.0 | 0.00 | 0.00 | 0.00 | 83 | 1013.2 |
| 20260903221506 | 86 | 184 | 0.0 | 1.0 | 0.00 | 0.00 | 0.00 | 81 | 1013.0 |
| 20260903220006 | 86 | 173 | 0.0 | 1.0 | 0.00 | 0.00 | 0.00 | 81 | 1013.2 |
| 20260903214504 | 86 | 234 | 0.0 | 1.0 | 0.00 | 0.00 | 0.00 | 79 | 1013.2 |
| 20260903213003 | 86 | 153 | 0.0 | 1.0 | 0.00 | 0.00 | 0.00 | 78 | 1013.3 |
| 20260903211502 | 86 | 292 | 0.0 | 1.0 | 0.00 | 0.00 | 0.00 | 80 | 1013.4 |
| 20260903210001 | 86 | 186 | 0.0 | 1.0 | 0.00 | 0.00 | 0.00 | 80 | 1013.5 |
| 20260903204604 | 86 | 289 | 0.0 | 1.0 | 0.00 | 0.00 | 0.00 | 79 | 1013.6 |
| 20260903203057 | 87 | 265 | 0.0 | 2.0 | 0.00 | 0.00 | 0.00 | 79 | 1013.9 |
| 20260903201557 | 87 | 186 | 0.0 | 2.0 | 0.00 | 0.00 | 0.00 | 78 | 1013.9 |
| 20260903200107 | 87 | 277 | 0.0 | 1.0 | 0.00 | 0.00 | 0.00 | 78 | 1014.1 |
| 20260903194555 | 87 | 186 | 0.0 | 2.0 | 0.00 | 0.39 | 0.00 | 76 | 1014.2 |
| 20260903193101 | 88 | 176 | 0.0 | 2.0 | 0.00 | 0.39 | 0.00 | 75 | 1014.2 |
| 20260903191602 | 88 | 110 | 0.0 | 3.0 | 0.00 | 0.39 | 0.00 | 75 | 1014.2 |
| 20260903190052 | 88 | 270 | 0.0 | 3.0 | 0.00 | 0.39 | 0.00 | 76 | 1014.4 |
| 20260903184550 | 86 | 111 | 0.0 | 2.0 | 0.00 | 0.39 | 0.00 | 79 | 1014.6 |
| 20260903183107 | 86 | 72 | 0.0 | 2.0 | 0.00 | 0.39 | 0.00 | 79 | 1014.8 |
| 20260903181552 | 85 | 188 | 0.0 | 2.0 | 0.00 | 0.39 | 0.00 | 80 | 1014.8 |
| 20260903180045 | 85 | 88 | 0.0 | 1.0 | 0.00 | 0.39 | 0.00 | 80 | 1015.1 |
| 20260903174545 | 85 | 183 | 0.0 | 1.0 | 0.00 | 0.39 | 0.00 | 80 | 1015.5 |
| 20260903173044 | 85 | 275 | 0.0 | 2.0 | 0.00 | 0.39 | 0.00 | 80 | 1015.4 |
| 20260903171543 | 86 | 186 | 0.0 | 3.0 | 0.00 | 0.39 | 0.00 | 78 | 1015.3 |
| 20260903170041 | 86 | 89 | 0.0 | 2.0 | 0.00 | 0.39 | 0.00 | 78 | 1015.5 |
| 20260903164540 | 86 | 175 | 0.0 | 3.0 | 0.00 | 0.39 | 0.00 | 79 | 1015.7 |
| 20260903163039 | 86 | 130 | 0.0 | 2.0 | 0.00 | 0.39 | 0.00 | 79 | 1016.0 |
| 20260903161556 | 85 | 180 | 0.0 | 2.0 | 0.00 | 0.39 | 0.00 | 82 | 1016.2 |
| 20260903160035 | 84 | 128 | 0.0 | 1.0 | 0.00 | 0.39 | 0.00 | 82 | 1016.1 |
| 20260903154531 | 83 | 257 | 0.0 | 1.0 | 0.00 | 0.39 | 0.00 | 83 | 1016.3 |
| 20260903153030 | 83 | 190 | 0.0 | 1.0 | 0.00 | 0.39 | 0.00 | 82 | 1016.5 |
| 20260903151527 | 82 | 177 | 0.0 | 1.0 | 0.00 | 0.39 | 0.00 | 86 | 1016.2 |
| 20260903150025 | 81 | 186 | 2.0 | 6.0 | 0.00 | 0.39 | 0.00 | 87 | 1015.6 |
| 20260903144523 | 80 | 186 | 0.0 | 2.0 | 0.00 | 0.39 | 0.00 | 89 | 1015.9 |
| 20260903143018 | 79 | 191 | 1.0 | 3.0 | 0.00 | 0.39 | 0.00 | 90 | 1016.1 |
| 20260903141513 | 77 | 168 | 0.0 | 2.0 | 0.00 | 0.39 | 0.00 | 92 | 1016.5 |
| 20260903140015 | 77 | 175 | 0.0 | 1.0 | 0.00 | 0.39 | 0.00 | 94 | 1016.6 |
| 20260903134509 | 76 | 149 | 0.0 | 2.0 | 0.00 | 0.39 | 0.00 | 95 | 1016.6 |
| 20260903133008 | 76 | 173 | 0.0 | 1.0 | 0.00 | 0.39 | 0.00 | 96 | 1016.8 |
| 20260903131510 | 76 | 103 | 0.0 | 1.0 | 0.00 | 0.39 | 0.00 | 96 | 1017.1 |
| 20260903130005 | 75 | 81 | 0.0 | 2.0 | 0.00 | 0.39 | 0.00 | 96 | 1017.4 |
| 20260903124503 | 75 | 87 | 0.0 | 2.0 | 0.00 | 0.39 | 0.00 | 97 | 1017.4 |
| 20260903123100 | 74 | 76 | 0.0 | 1.0 | 0.00 | 0.39 | 0.00 | 96 | 1017.6 |
| 20260903121600 | 74 | 76 | 0.0 | 2.0 | 0.00 | 0.39 | 0.00 | 96 | 1017.7 |
| 20260903120052 | 73 | 114 | 0.0 | 1.0 | 0.00 | 0.39 | 0.00 | 96 | 1017.4 |
| 20260903114547 | 73 | 80 | 0.0 | 1.0 | 0.00 | 0.39 | 0.00 | 96 | 1017.4 |
| 20260903113043 | 73 | 84 | 0.0 | 1.0 | 0.00 | 0.39 | 0.00 | 96 | 1017.3 |
| 20260903111539 | 73 | 84 | 0.0 | 1.0 | 0.00 | 0.39 | 0.00 | 96 | 1017.0 |
| 20260903110033 | 73 | 71 | 0.0 | 1.0 | 0.00 | 0.39 | 0.00 | 96 | 1017.0 |